Time,TemperatureF,DewpointF,PressureIn,WindDirection,WindDirectionDegrees,WindSpeedMPH,WindSpeedGustMPH,Humidity,HourlyPrecipIn,Conditions,Clouds,dailyrainin,SoftwareType,DateUTC
2013-08-25 00:12:00,72.0,39.0,29.66,SSW,202,12.0,35.0,30,0.00,,,0.00,,2013-08-25 06:12:00,
2013-08-25 00:21:00,71.0,40.0,29.67,SW,228,16.0,24.0,33,0.00,,,0.00,,2013-08-25 06:21:00,
2013-08-25 00:43:00,71.0,40.0,29.68,NNW,327,5.0,18.0,33,0.00,,,0.00,,2013-08-25 06:43:00,
2013-08-25 00:52:00,71.0,41.0,29.68,NW,322,8.0,20.0,34,0.00,,,0.00,,2013-08-25 06:52:00,
2013-08-25 01:12:00,71.0,42.0,29.67,West,265,6.0,25.0,35,0.00,,,0.00,,2013-08-25 07:12:00,
2013-08-25 01:22:00,71.0,41.0,29.67,SSE,165,8.0,21.0,34,0.00,,,0.00,,2013-08-25 07:22:00,
2013-08-25 01:42:00,70.0,40.0,29.67,South,174,9.0,14.0,34,0.00,,,0.00,,2013-08-25 07:42:00,
2013-08-25 01:52:00,70.0,41.0,29.67,SE,144,6.0,10.0,35,0.00,,,0.00,,2013-08-25 07:52:00,
2013-08-25 02:12:00,68.0,42.0,29.67,SSE,148,4.0,8.0,39,0.00,,,0.00,,2013-08-25 08:12:00,
2013-08-25 02:21:00,67.0,44.0,29.67,NE,51,4.0,7.0,43,0.00,,,0.00,,2013-08-25 08:21:00,
2013-08-25 02:42:00,66.0,44.0,29.67,SSW,192,1.0,5.0,45,0.00,,,0.00,,2013-08-25 08:42:00,
2013-08-25 02:52:00,66.0,44.0,29.66,ENE,64,0.0,8.0,45,0.00,,,0.00,,2013-08-25 08:52:00,
2013-08-25 03:11:00,66.0,45.0,29.66,ENE,64,0.0,0.0,46,0.00,,,0.00,,2013-08-25 09:11:00,
2013-08-25 03:22:00,65.0,43.0,29.65,East,88,3.0,8.0,45,0.00,,,0.00,,2013-08-25 09:22:00,
2013-08-25 03:44:00,65.0,44.0,29.66,SSW,204,0.0,7.0,46,0.00,,,0.00,,2013-08-25 09:44:00,
2013-08-25 03:55:00,65.0,44.0,29.66,NE,41,3.0,6.0,46,0.00,,,0.00,,2013-08-25 09:55:00,
2013-08-25 04:12:00,65.0,44.0,29.65,WSW,248,1.0,5.0,46,0.00,,,0.00,,2013-08-25 10:12:00,
2013-08-25 04:22:00,64.0,44.0,29.65,SSW,213,2.0,3.0,49,0.00,,,0.00,,2013-08-25 10:22:00,
2013-08-25 04:42:00,65.0,44.0,29.65,South,177,3.0,8.0,46,0.00,,,0.00,,2013-08-25 10:42:00,
2013-08-25 04:53:00,67.0,43.0,29.65,West,267,7.0,11.0,42,0.00,,,0.00,,2013-08-25 10:53:00,
2013-08-25 05:11:00,67.0,43.0,29.66,SSW,209,2.0,4.0,42,0.00,,,0.00,,2013-08-25 11:11:00,
2013-08-25 05:22:00,67.0,43.0,29.65,SE,136,5.0,10.0,41,0.00,,,0.00,,2013-08-25 11:22:00,
2013-08-25 05:42:00,69.0,42.0,29.66,SSW,195,5.0,10.0,37,0.00,,,0.00,,2013-08-25 11:42:00,
2013-08-25 05:52:00,70.0,42.0,29.66,ESE,102,2.0,11.0,36,0.00,,,0.00,,2013-08-25 11:52:00,
2013-08-25 06:12:00,69.0,42.0,29.66,SSW,200,1.0,5.0,38,0.00,,,0.00,,2013-08-25 12:12:00,
2013-08-25 06:22:00,69.0,42.0,29.67,WSW,255,3.0,13.0,38,0.00,,,0.00,,2013-08-25 12:22:00,
2013-08-25 06:42:00,68.0,42.0,29.67,SSE,159,5.0,12.0,39,0.00,,,0.00,,2013-08-25 12:42:00,
2013-08-25 06:52:00,68.0,42.0,29.67,South,185,2.0,6.0,39,0.00,,,0.00,,2013-08-25 12:52:00,
2013-08-25 07:11:00,69.0,42.0,29.68,SSW,192,7.0,19.0,38,0.00,,,0.00,,2013-08-25 13:11:00,
2013-08-25 07:21:00,69.0,42.0,29.67,South,171,5.0,10.0,37,0.00,,,0.00,,2013-08-25 13:21:00,
2013-08-25 07:42:00,71.0,42.0,29.67,SSW,200,10.0,16.0,35,0.00,,,0.00,,2013-08-25 13:42:00,
2013-08-25 07:52:00,72.0,43.0,29.67,SSW,204,9.0,13.0,35,0.00,,,0.00,,2013-08-25 13:52:00,
2013-08-25 08:11:00,71.0,42.0,29.67,South,182,11.0,17.0,35,0.00,,,0.00,,2013-08-25 14:11:00,
2013-08-25 08:23:00,71.0,42.0,29.67,SW,219,9.0,16.0,35,0.00,,,0.00,,2013-08-25 14:23:00,
2013-08-25 08:52:00,72.0,42.0,29.68,SW,220,9.0,13.0,34,0.00,,,0.00,,2013-08-25 14:52:00,
2013-08-25 09:11:00,74.0,44.0,29.68,SSW,199,6.0,13.0,34,0.00,,,0.00,,2013-08-25 15:11:00,
2013-08-25 09:23:00,76.0,42.0,29.67,West,265,12.0,22.0,30,0.00,,,0.00,,2013-08-25 15:23:00,
2013-08-25 09:54:00,77.0,41.0,29.68,SW,236,13.0,24.0,28,0.00,,,0.00,,2013-08-25 15:54:00,
2013-08-25 10:13:00,79.0,42.0,29.68,SW,232,16.0,23.0,27,0.00,,,0.00,,2013-08-25 16:13:00,
2013-08-25 10:24:00,79.0,42.0,29.68,SW,217,16.0,22.0,27,0.00,,,0.00,,2013-08-25 16:24:00,
2013-08-25 10:44:00,79.0,42.0,29.68,SW,217,12.0,27.0,27,0.00,,,0.00,,2013-08-25 16:44:00,
2013-08-25 10:54:00,80.0,43.0,29.68,SSW,199,9.0,25.0,27,0.00,,,0.00,,2013-08-25 16:54:00,
2013-08-25 11:11:00,81.0,43.0,29.67,SSW,211,13.0,19.0,26,0.00,,,0.00,,2013-08-25 17:11:00,
2013-08-25 11:22:00,82.0,44.0,29.67,SSW,207,10.0,18.0,26,0.00,,,0.00,,2013-08-25 17:22:00,
2013-08-25 11:42:00,83.0,44.0,29.67,South,187,7.0,17.0,25,0.00,,,0.00,,2013-08-25 17:42:00,
2013-08-25 11:53:00,84.0,43.0,29.67,SSW,202,8.0,16.0,24,0.00,,,0.00,,2013-08-25 17:53:00,
2013-08-25 12:12:00,85.0,43.0,29.66,ESE,115,9.0,12.0,23,0.00,,,0.00,,2013-08-25 18:12:00,
2013-08-25 12:21:00,85.0,42.0,29.66,ENE,69,7.0,17.0,22,0.00,,,0.00,,2013-08-25 18:21:00,
2013-08-25 12:42:00,86.0,43.0,29.65,NNE,29,5.0,12.0,22,0.00,,,0.00,,2013-08-25 18:42:00,
2013-08-25 12:52:00,86.0,41.0,29.65,ENE,77,7.0,13.0,21,0.00,,,0.00,,2013-08-25 18:52:00,
2013-08-25 13:11:00,86.0,41.0,29.64,NE,49,11.0,14.0,21,0.00,,,0.00,,2013-08-25 19:11:00,
2013-08-25 13:22:00,84.0,41.0,29.64,East,87,7.0,14.0,22,0.00,,,0.00,,2013-08-25 19:22:00,
2013-08-25 13:42:00,84.0,41.0,29.64,ENE,68,7.0,10.0,22,0.00,,,0.00,,2013-08-25 19:42:00,
2013-08-25 13:53:00,85.0,43.0,29.62,NE,38,1.0,5.0,23,0.00,,,0.00,,2013-08-25 19:53:00,
2013-08-25 14:12:00,87.0,41.0,29.62,East,86,6.0,15.0,20,0.00,,,0.00,,2013-08-25 20:12:00,
2013-08-25 14:23:00,89.0,43.0,29.62,ESE,107,5.0,13.0,20,0.00,,,0.00,,2013-08-25 20:23:00,
2013-08-25 14:43:00,87.0,41.0,29.62,East,98,10.0,16.0,20,0.00,,,0.00,,2013-08-25 20:43:00,
2013-08-25 14:53:00,85.0,43.0,29.62,East,99,10.0,14.0,23,0.00,,,0.00,,2013-08-25 20:53:00,
2013-08-25 15:12:00,85.0,42.0,29.61,ENE,74,10.0,16.0,22,0.00,,,0.00,,2013-08-25 21:12:00,
2013-08-25 15:22:00,85.0,41.0,29.61,ENE,71,6.0,14.0,21,0.00,,,0.00,,2013-08-25 21:22:00,
2013-08-25 15:43:00,84.0,42.0,29.61,ENE,78,7.0,11.0,23,0.00,,,0.00,,2013-08-25 21:43:00,
2013-08-25 15:54:00,84.0,41.0,29.61,NE,44,4.0,11.0,22,0.00,,,0.00,,2013-08-25 21:54:00,
2013-08-25 16:13:00,86.0,41.0,29.60,ENE,74,9.0,15.0,21,0.00,,,0.00,,2013-08-25 22:13:00,
2013-08-25 16:23:00,86.0,41.0,29.60,ENE,74,9.0,15.0,21,0.00,,,0.00,,2013-08-25 22:23:00,
2013-08-25 16:43:00,85.0,42.0,29.60,ENE,71,6.0,11.0,22,0.00,,,0.00,,2013-08-25 22:43:00,
2013-08-25 16:53:00,85.0,41.0,29.60,East,83,7.0,12.0,21,0.00,,,0.00,,2013-08-25 22:53:00,
2013-08-25 17:12:00,86.0,40.0,29.59,ENE,70,5.0,11.0,20,0.00,,,0.00,,2013-08-25 23:12:00,
2013-08-25 17:23:00,86.0,40.0,29.59,ENE,71,2.0,10.0,20,0.00,,,0.00,,2013-08-25 23:23:00,
2013-08-25 17:42:00,87.0,40.0,29.59,ENE,67,3.0,13.0,19,0.00,,,0.00,,2013-08-25 23:42:00,
2013-08-25 17:53:00,87.0,41.0,29.59,East,89,6.0,9.0,20,0.00,,,0.00,,2013-08-25 23:53:00,
2013-08-25 18:11:00,87.0,40.0,29.58,ENE,78,11.0,15.0,19,0.00,,,0.00,,2013-08-26 00:11:00,
2013-08-25 18:22:00,87.0,38.0,29.59,East,98,11.0,14.0,18,0.00,,,0.00,,2013-08-26 00:22:00,
2013-08-25 18:42:00,87.0,37.0,29.59,ESE,102,11.0,17.0,17,0.00,,,0.00,,2013-08-26 00:42:00,
2013-08-25 18:52:00,86.0,36.0,29.58,ESE,103,8.0,15.0,17,0.00,,,0.00,,2013-08-26 00:52:00,
2013-08-25 19:11:00,85.0,35.0,29.58,ESE,105,9.0,12.0,17,0.00,,,0.00,,2013-08-26 01:11:00,
2013-08-25 19:22:00,84.0,34.0,29.58,East,96,6.0,10.0,17,0.00,,,0.00,,2013-08-26 01:22:00,
2013-08-25 19:42:00,83.0,34.0,29.58,ESE,107,5.0,10.0,17,0.00,,,0.00,,2013-08-26 01:42:00,
2013-08-25 19:52:00,82.0,37.0,29.57,ESE,106,0.0,3.0,20,0.00,,,0.00,,2013-08-26 01:52:00,
2013-08-25 20:11:00,81.0,37.0,29.58,ESE,106,0.0,3.0,21,0.00,,,0.00,,2013-08-26 02:11:00,
2013-08-25 20:21:00,79.0,36.0,29.57,NW,306,4.0,7.0,21,0.00,,,0.00,,2013-08-26 02:21:00,
2013-08-25 20:42:00,79.0,36.0,29.58,WNW,294,3.0,6.0,21,0.00,,,0.00,,2013-08-26 02:42:00,
2013-08-25 20:52:00,78.0,36.0,29.58,WSW,253,3.0,5.0,22,0.00,,,0.00,,2013-08-26 02:52:00,
2013-08-25 21:11:00,78.0,37.0,29.58,West,261,3.0,5.0,23,0.00,,,0.00,,2013-08-26 03:11:00,
2013-08-25 21:21:00,78.0,36.0,29.59,West,261,1.0,3.0,22,0.00,,,0.00,,2013-08-26 03:21:00,
2013-08-25 21:44:00,78.0,41.0,29.60,SSE,159,14.0,22.0,27,0.00,,,0.00,,2013-08-26 03:44:00,
2013-08-25 21:55:00,79.0,41.0,29.59,SW,228,7.0,18.0,26,0.00,,,0.00,,2013-08-26 03:55:00,
2013-08-25 22:14:00,79.0,41.0,29.59,WSW,246,7.0,11.0,26,0.00,,,0.00,,2013-08-26 04:14:00,
2013-08-25 22:53:00,79.0,41.0,29.57,WSW,251,5.0,8.0,26,0.00,,,0.00,,2013-08-26 04:53:00,
2013-08-25 23:13:00,78.0,40.0,29.57,WSW,237,5.0,8.0,26,0.00,,,0.00,,2013-08-26 05:13:00,
2013-08-25 23:22:00,79.0,40.0,29.57,SW,225,7.0,14.0,25,0.00,,,0.00,,2013-08-26 05:22:00,
2013-08-25 23:43:00,79.0,41.0,29.57,WSW,238,11.0,16.0,26,0.00,,,0.00,,2013-08-26 05:43:00,
2013-08-25 23:52:00,79.0,41.0,29.56,WSW,242,13.0,20.0,26,0.00,,,0.00,,2013-08-26 05:52:00,